Temperature
1 1 1 1 2 2 2 2 2 2 3 3 4 4 4 4 5 5 5 5 5 5 5 5 5 5 5 5 5 5 5 5 5 5 5 5 5 5
0 0 1 1 1 1 1 1 2 2 2 3 3 4 4 4 4 4 4 4 5 5 5 5 5 5 5 5 5 5 5 5 5 5 5 5 5 5
-0 -0 0 0 0 0 0 1 1 1 2 2 2 3 3 3 3 3 4 4 4 4 4 4 4 4 4 4 4 4 4 4 4 4 4 4 4 4
-1 -1 -0 -0 -0 -0 -0 0 1 1 1 1 2 2 2 3 3 3 3 3 3 4 4 4 4 4 3 3 4 4 3 4 3 3 4 4 3 3
-1 -1 -1 -1 -1 -1 -0 -0 -0 0 0 1 1 1 1 2 2 2 2 2 3 3 3 3 3 3 3 3 3 3 3 3 3 3 3 3 3 3
-2 -2 -1 -1 -1 -1 -1 -1 -1 -1 -0 -0 0 1 1 1 1 1 1 1 2 2 2 2 2 2 2 2 2 2 2 2 2 2 2 2 2 2
-2 -2 -2 -2 -2 -2 -2 -1 -1 -1 -1 -1 -1 -0 -0 0 0 0 0 1 1 1 1 2 2 2 2 2 2 2 1 2 2 2 2 1 1 2
-3 -3 -3 -2 -2 -2 -2 -2 -2 -2 -2 -1 -1 -1 -1 -0 -0 -0 -0 -0 -0 0 1 1 1 1 1 1 1 1 1 1 1 1 1 1 1 1
-4 -4 -3 -3 -3 -3 -2 -2 -2 -2 -2 -2 -2 -1 -1 -1 -1 -1 -1 -1 -1 -1 -1 -0 0 -0 0 0 0 0 0 0 1 0 0 0 0 1
-4 -4 -4 -4 -3 -3 -3 -3 -3 -3 -2 -2 -2 -2 -2 -1 -1 -1 -2 -2 -2 -1 -2 -1 -1 -1 -0 -0 -0 -0 0 -0 0 0 -0 -0 -0 -0
-5 -5 -5 -4 -4 -4 -4 -4 -3 -3 -3 -3 -3 -2 -2 -2 -2 -3 -2 -3 -2 -2 -2 -2 -2 -1 -1 -1 -1 -1 -1 -0 -1 -0 -0 -1 -1 -1
-5 -5 -5 -5 -5 -4 -4 -4 -4 -3 -3 -3 -3 -3 -3 -3 -3 -3 -3 -3 -3 -3 -2 -3 -2 -2 -2 -1 -1 -1 -1 -1 -1 -1 -1 -1 -1 -1
-6 -6 -5 -5 -5 -5 -5 -5 -4 -4 -4 -4 -4 -3 -3 -3 -3 -3 -3 -3 -3 -3 -3 -3 -3 -3 -3 -2 -2 -2 -2 -1 -1 -1 -1 -1 -2 -2
-6 -6 -6 -6 -5 -5 -5 -5 -5 -5 -5 -5 -4 -4 -4 -4 -4 -4 -4 -4 -4 -4 -4 -4 -4 -3 -3 -3 -3 -2 -2 -2 -2 -2 -2 -2 -2 -2
-7 -7 -7 -7 -6 -6 -6 -6 -5 -5 -5 -5 -5 -5 -5 -5 -5 -5 -5 -5 -5 -4 -4 -4 -4 -4 -4 -4 -3 -3 -3 -3 -3 -3 -3 -3 -3 -3
-8 -7 -7 -7 -7 -7 -6 -6 -6 -6 -6 -6 -6 -5 -5 -5 -5 -5 -5 -5 -5 -5 -5 -5 -5 -4 -4 -4 -4 -4 -3 -3 -3 -3 -3 -3 -3 -3
-8 -8 -8 -8 -8 -7 -7 -7 -7 -7 -7 -6 -6 -6 -6 -6 -6 -6 -6 -6 -6 -5 -5 -5 -5 -5 -5 -5 -5 -4 -4 -4 -4 -4 -4 -4 -4 -4
-8 -9 -9 -9 -9 -8 -8 -8 -8 -7 -7 -7 -7 -7 -7 -6 -6 -6 -6 -6 -6 -6 -6 -6 -6 -6 -6 -5 -5 -5 -5 -5 -4 -4 -5 -5 -4 -4
-9 -9 -9 -9 -9 -9 -9 -9 -8 -8 -8 -8 -7 -7 -7 -7 -7 -7 -7 -7 -6 -6 -6 -6 -6 -6 -6 -6 -6 -6 -6 -5 -6 -5 -5 -5 -5 -5
-10 -10 -10 -10 -10 -10 -9 -9 -9 -9 -9 -8 -8 -8 -8 -8 -8 -7 -7 -7 -7 -7 -7 -7 -7 -7 -7 -7 -7 -7 -6 -6 -6 -6 -6 -6 -6 -6
-11 -11 -11 -11 -10 -10 -10 -10 -10 -9 -9 -9 -9 -9 -9 -8 -8 -8 -8 -8 -8 -7 -7 -7 -7 -7 -7 -8 -8 -7 -7 -7 -7 -7 -7 -7 -7 -6
-11 -11 -11 -11 -11 -11 -10 -10 -10 -10 -10 -10 -10 -9 -9 -9 -9 -9 -9 -8 -8 -8 -8 -8 -8 -8 -8 -8 -8 -8 -8 -8 -8 -8 -8 -8 -8 -7
-12 -12 -11 -11 -11 -11 -11 -11 -11 -10 -10 -10 -10 -10 -10 -10 -9 -9 -9 -9 -9 -9 -9 -9 -9 -9 -9 -9 -9 -9 -9 -9 -8 -8 -8 -8 -8 -8
Wind_Speed
4 4 4 3 3 3 3 3 4 4 5 4 2 2 2 3 4 4 4 6 7 7 8 8 7 7 7 6 6 6 5 4 4 4 4 4 5 5
4 4 4 3 3 3 3 3 4 5 5 4 3 2 2 3 4 3 4 6 7 7 7 8 8 8 7 7 7 6 5 5 5 4 5 5 5 5
5 5 5 5 4 4 4 4 4 4 5 4 2 2 2 3 3 2 3 4 5 7 7 7 8 8 8 7 7 7 6 6 6 5 5 5 5 6
6 6 6 5 5 5 4 5 4 4 4 5 3 2 3 3 3 2 2 3 4 6 7 7 7 8 8 7 7 7 7 6 6 6 5 5 6 6
6 7 6 6 6 5 5 5 4 4 3 4 4 3 2 2 2 2 3 2 3 5 7 7 7 7 8 8 8 8 8 7 7 7 6 6 6 7
6 7 7 7 8 7 6 6 5 4 4 4 4 3 3 3 3 3 3 2 3 4 5 6 7 7 8 8 9 9 9 9 8 7 7 7 7 7
6 6 7 8 9 8 7 6 6 5 5 5 5 4 4 4 4 3 4 2 3 3 3 4 4 5 7 8 8 9 10 9 9 9 8 8 8 8
7 7 7 8 10 11 11 10 9 8 7 7 6 6 6 5 4 4 4 3 3 2 2 4 4 4 5 7 8 9 10 10 10 9 9 9 9 9
7 6 6 7 8 6 8 10 10 12 11 9 8 9 7 6 5 6 5 5 5 3 2 4 4 5 5 7 9 10 10 10 10 9 9 9 9 10
6 7 7 7 7 7 6 6 7 8 9 9 8 8 7 7 7 6 4 3 3 3 3 4 4 4 4 6 8 9 9 9 9 10 10 10 10 10
6 6 7 8 10 10 7 7 7 7 9 11 11 10 10 9 7 4 4 4 4 4 3 3 3 3 3 4 7 9 9 9 10 10 10 10 10 10
5 6 9 9 11 11 8 7 8 7 6 5 7 7 8 8 9 8 7 6 4 4 4 3 3 1 2 3 4 5 6 8 9 10 10 10 10 8
4 4 5 9 11 11 10 8 10 7 5 6 5 5 4 5 6 7 7 7 6 5 4 3 3 2 2 2 3 4 5 5 6 8 9 10 10 8
4 4 5 8 9 9 7 8 9 7 4 5 5 5 5 5 5 6 6 6 6 7 7 6 3 4 3 3 3 2 3 4 5 5 7 8 9 10
3 4 5 5 5 4 5 6 5 4 4 5 5 5 5 4 4 3 3 4 4 5 7 7 5 4 4 4 3 3 2 3 4 4 5 6 6 6
2 3 4 4 3 2 2 2 2 3 4 5 4 4 3 3 4 4 4 3 2 3 4 6 7 6 4 4 4 4 4 3 3 4 5 5 7 7
1 1 1 1 1 1 1 1 1 1 3 3 3 3 3 3 3 3 3 3 4 4 3 2 3 4 4 4 4 4 4 4 4 4 3 5 6 7
0 0 1 1 1 1 1 1 1 1 2 2 3 3 3 4 4 3 3 4 5 5 4 3 2 1 1 3 5 5 4 4 3 4 4 4 6 6
2 1 1 1 1 1 1 1 1 2 1 2 2 2 3 3 3 3 3 3 4 4 4 3 4 4 4 5 3 4 4 3 3 3 4 4 6 6
2 1 1 1 1 1 1 1 1 1 1 1 2 2 2 3 3 4 4 4 4 3 3 3 4 5 6 5 3 3 5 4 4 4 4 4 4 7
2 2 2 2 1 1 1 1 2 1 2 1 2 2 2 3 3 3 3 4 4 3 4 4 4 4 2 2 2 3 2 5 5 4 4 3 4 4
2 2 2 2 2 2 2 2 1 2 2 2 2 2 2 2 3 4 4 3 3 3 4 3 2 2 2 4 4 4 3 3 5 6 6 7 4 5
3 3 2 2 2 2 2 2 2 2 2 2 2 2 2 2 3 3 3 3 3 3 3 2 2 2 3 3 4 3 3 3 2 3 4 7 8 9
Wind_Direction
239 234 241 238 223 224 219 210 206 229 239 239 227 221 207 205 218 215 212 212 212 212 208 200 199 200 204 209 211 214 216 220 228 234 240 251 262 273
244 236 240 242 229 226 224 223 222 219 236 235 239 257 244 248 235 234 226 214 208 208 207 202 200 201 204 208 213 214 213 215 222 234 243 247 257 269
243 237 238 235 230 226 225 224 225 219 231 257 265 259 248 241 246 242 237 221 218 215 209 208 206 206 208 210 214 214 213 214 220 231 244 251 256 266
236 235 237 235 231 230 226 227 223 217 215 237 254 247 251 236 225 228 254 238 233 223 215 212 210 211 211 212 216 215 214 216 221 228 240 254 258 264
233 233 234 231 233 234 233 226 223 225 216 221 245 249 253 235 223 248 252 261 249 230 220 215 214 215 218 223 224 223 219 219 222 227 237 250 259 261
235 234 233 230 228 227 234 225 216 216 219 220 234 239 243 234 203 216 248 248 264 259 233 224 221 221 226 229 228 227 225 222 222 227 235 244 253 258
241 242 240 237 230 231 232 221 210 213 214 218 226 235 235 224 213 213 236 252 270 252 224 226 229 235 236 232 230 227 228 227 228 231 235 241 248 256
242 244 246 242 239 240 240 233 222 215 215 216 226 225 229 230 222 212 217 237 256 241 228 241 229 229 244 235 234 233 233 233 231 232 236 241 248 254
239 242 249 247 242 240 241 240 237 235 232 222 219 225 224 217 209 216 218 226 248 230 246 254 221 231 246 243 239 235 234 234 233 234 239 244 250 252
240 239 244 243 239 237 232 236 237 236 237 232 226 227 226 217 209 217 221 232 262 244 223 255 241 234 248 252 239 229 229 233 236 239 243 248 251 253
251 247 243 237 240 239 232 234 240 244 246 240 234 232 231 230 221 202 207 216 248 250 222 232 245 250 241 237 236 228 231 238 241 242 244 250 252 253
255 252 248 243 242 239 227 227 236 240 233 234 230 229 228 226 224 215 210 218 234 242 217 212 232 233 249 234 230 233 235 240 242 246 249 251 251 253
257 256 252 252 251 249 239 231 237 234 219 219 221 218 216 217 221 221 218 217 225 236 213 199 221 216 224 255 250 239 232 241 245 251 251 250 251 251
256 258 257 256 254 253 250 239 237 234 218 216 220 221 220 222 219 216 220 229 236 240 220 206 219 211 213 246 254 243 236 244 246 255 257 256 254 253
261 268 270 266 264 261 253 244 236 219 210 218 223 229 226 219 208 208 216 224 240 244 231 229 217 214 213 226 234 240 253 250 249 245 251 253 253 257
278 279 288 296 299 300 279 268 239 223 218 220 223 227 217 211 212 209 214 210 230 258 248 235 223 207 225 235 228 241 238 231 234 251 258 258 258 252
235 232 252 283 291 298 308 287 266 244 238 228 220 219 216 217 223 220 219 215 224 235 245 237 225 219 218 217 231 238 242 248 239 238 246 257 254 254
295 208 233 254 260 270 275 288 279 260 251 239 222 222 220 219 223 225 220 216 220 226 226 216 193 207 271 268 237 233 236 242 245 240 236 249 265 263
44 40 356 304 279 276 272 272 276 270 258 243 227 214 213 216 215 219 221 221 221 221 220 213 204 198 222 249 256 232 226 234 242 246 242 243 255 263
20 356 332 314 296 282 277 278 277 276 259 249 237 223 213 210 213 220 221 220 222 225 229 224 215 211 219 229 242 260 247 234 230 242 256 268 271 280
351 337 324 318 309 296 282 272 266 265 271 261 250 235 223 213 215 220 222 227 229 223 224 231 234 230 203 170 235 263 268 262 250 241 240 258 275 278
342 335 322 313 310 301 286 274 271 271 271 275 262 245 240 224 215 215 215 216 224 228 233 237 216 201 197 208 231 248 267 291 294 287 272 256 244 244
329 325 318 314 307 302 298 284 271 268 266 272 275 260 247 236 218 217 214 214 218 225 224 226 219 212 220 219 229 244 255 269 286 296 295 292 278 276
Height
1482 1483 1485 1486 1488 1490 1492 1494 1496 1494 1494 1495 1497 1499 1502 1504 1506 1508 1510 1512 1514 1515 1517 1518 1519 1520 1522 1523 1524 1525 1526 1527 1528 1529 1529 1530 1530 1530
1477 1478 1480 1482 1484 1485 1487 1489 1491 1491 1490 1490 1492 1495 1497 1499 1501 1503 1505 1507 1509 1510 1512 1513 1514 1516 1517 1518 1520 1521 1521 1522 1523 1524 1525 1525 1526 1526
1472 1474 1475 1477 1479 1480 1482 1483 1485 1486 1486 1485 1488 1490 1492 1494 1495 1497 1499 1501 1504 1505 1506 1508 1509 1510 1512 1513 1515 1516 1517 1518 1519 1520 1520 1521 1521 1522
1467 1469 1470 1472 1473 1475 1476 1478 1479 1481 1482 1481 1482 1485 1487 1489 1490 1492 1494 1496 1498 1500 1501 1502 1504 1505 1506 1508 1510 1511 1512 1513 1514 1515 1516 1516 1516 1517
1462 1463 1465 1467 1468 1469 1471 1472 1474 1475 1477 1477 1478 1480 1482 1484 1485 1487 1489 1490 1492 1494 1495 1497 1498 1500 1501 1503 1504 1506 1507 1508 1509 1510 1510 1511 1512 1512
1456 1458 1459 1461 1462 1464 1465 1467 1468 1470 1471 1473 1473 1475 1476 1478 1480 1481 1483 1484 1486 1488 1490 1491 1493 1494 1495 1497 1498 1500 1501 1502 1503 1504 1505 1506 1506 1507
1451 1452 1454 1455 1456 1458 1460 1461 1462 1464 1466 1467 1468 1470 1471 1473 1474 1476 1477 1479 1480 1482 1484 1485 1486 1488 1489 1491 1492 1494 1495 1497 1498 1499 1500 1501 1501 1502
1445 1446 1448 1449 1450 1452 1453 1455 1457 1459 1460 1462 1462 1464 1465 1467 1469 1471 1473 1473 1474 1476 1477 1478 1480 1481 1483 1485 1486 1488 1490 1491 1492 1494 1495 1496 1496 1496
1439 1440 1441 1443 1445 1446 1447 1449 1450 1452 1455 1457 1457 1458 1460 1462 1464 1466 1467 1468 1469 1470 1472 1472 1474 1475 1477 1478 1480 1482 1484 1485 1486 1488 1489 1490 1490 1491
1434 1435 1436 1437 1438 1440 1441 1442 1444 1445 1447 1449 1451 1452 1455 1457 1459 1460 1461 1463 1464 1465 1467 1467 1467 1469 1471 1472 1474 1475 1477 1479 1480 1482 1483 1484 1484 1485
1429 1429 1430 1431 1432 1434 1436 1436 1437 1438 1441 1443 1445 1447 1449 1451 1453 1455 1456 1458 1457 1459 1461 1462 1462 1463 1464 1465 1467 1469 1471 1473 1474 1475 1477 1478 1478 1479
1423 1424 1424 1425 1427 1428 1429 1430 1430 1432 1434 1436 1438 1440 1442 1444 1447 1449 1450 1452 1452 1452 1454 1457 1457 1457 1458 1459 1461 1463 1465 1466 1468 1469 1470 1471 1472 1473
1418 1419 1419 1420 1422 1423 1424 1424 1425 1427 1428 1430 1432 1434 1436 1438 1440 1442 1444 1446 1446 1447 1449 1451 1451 1451 1452 1452 1454 1457 1458 1460 1461 1463 1464 1465 1466 1466
1414 1414 1415 1416 1416 1417 1418 1418 1420 1422 1423 1425 1426 1427 1429 1431 1433 1435 1437 1439 1440 1442 1443 1445 1445 1445 1446 1446 1448 1450 1452 1454 1455 1456 1457 1458 1459 1460
1410 1410 1411 1411 1412 1412 1412 1413 1414 1416 1417 1419 1420 1422 1424 1426 1428 1429 1431 1432 1434 1435 1437 1438 1439 1440 1441 1441 1442 1443 1445 1447 1449 1450 1451 1451 1452 1452
1406 1407 1407 1407 1407 1407 1407 1408 1409 1411 1413 1414 1415 1417 1419 1420 1422 1423 1425 1426 1427 1428 1430 1431 1433 1434 1435 1436 1437 1437 1439 1440 1442 1443 1444 1445 1445 1446
1403 1403 1403 1402 1402 1402 1403 1403 1405 1406 1408 1409 1410 1412 1413 1415 1416 1418 1419 1420 1421 1422 1423 1425 1427 1428 1430 1431 1431 1432 1433 1435 1436 1437 1438 1438 1439 1440
1400 1399 1399 1399 1399 1399 1399 1400 1400 1402 1403 1404 1405 1406 1408 1409 1411 1412 1413 1415 1415 1416 1418 1420 1422 1423 1424 1425 1426 1427 1428 1429 1430 1431 1432 1432 1432 1433
1396 1396 1396 1396 1396 1396 1396 1397 1397 1398 1399 1400 1400 1401 1403 1404 1406 1407 1408 1409 1410 1411 1413 1415 1417 1418 1418 1419 1420 1422 1423 1423 1424 1425 1426 1426 1426 1427
1394 1394 1394 1394 1393 1393 1393 1394 1394 1394 1395 1395 1396 1397 1398 1399 1400 1401 1403 1404 1405 1406 1408 1409 1411 1412 1413 1414 1415 1416 1418 1418 1418 1419 1420 1420 1421 1421
1392 1392 1392 1392 1391 1391 1391 1391 1391 1391 1392 1392 1392 1393 1393 1394 1395 1396 1398 1399 1400 1401 1402 1404 1405 1408 1409 1410 1410 1410 1412 1414 1414 1414 1414 1415 1414 1414
1391 1390 1390 1390 1389 1389 1389 1389 1389 1389 1389 1389 1389 1389 1389 1389 1390 1391 1393 1394 1395 1396 1397 1399 1401 1403 1404 1404 1404 1405 1406 1408 1409 1409 1410 1409 1409 1408
1389 1389 1388 1388 1388 1387 1387 1387 1387 1386 1386 1387 1386 1386 1386 1386 1386 1388 1389 1390 1391 1392 1393 1394 1396 1397 1398 1399 1400 1401 1401 1402 1402 1403 1403 1404 1405 1404